Weather in Prešov

Slovakia     49°00′07″N   21°14′21″E
temp.,
°C
wind,
m/s
gust,
m/s
humid.,
%
clouds,
%
prec.,
mm/h
press.,
hPa
HPBL,
m
20 april, tue
tue2023:00+6nnw2394100 0.7 101484
02:00+5nnw239672 0.8 101458
05:00+3nnw349414 0.0 101465
08:00+6n268682 0.0 1014276
11:00+11nne346441 0.6 10131151
14:00+12nne445556 2.1 10111717
17:00+12nne345396 0.5 10111611
20:00+6nnw228221 0.8 101323
21 april, wed
wed2123:00+5wnw228829 0.1 101417
02:00+4w21895 0.1 101512
05:00+3w118976 0.0 101511
08:00+8sw117585 0.0 1015186
11:00+12s335651 0.1 10141367
14:00+14ssw345550 1.4 10131533
17:00+13wsw356470 1.6 10131201
20:00+8s117976 2.9 101411
22 april, thu
thu2223:00+6sw118835 0.2 101510
02:00+5sse229576 0.3 101529
05:00+5sse1198100 0.3 101549
08:00+7se2392100 0.8 1015313
11:00+10sse1386100 0.9 1015523
14:00+9n2491100 3.8 1015322
17:00+4n3694100 1.8 1017487
20:00+3n2493100 2.1 1019302
23 april, fri
fri2323:00+3n1292100 0.0 101965
02:00+1w11897 0.0 102010
05:00+1wnw118641 0.0 102015
08:00+4wnw127483 0.1 1021324
11:00+8wnw1259100 1.2 10201296
14:00+7ne226687 2.9 1019838
17:00+6n276791 1.3 10201427
20:00+2nw22775 1.4 102318
24 april, sat
sat2423:000w22865 0.0 102513
02:00−1wnw218585 0.0 102513
05:00−1wnw118689 0.0 102511
08:00+4nw256066 0.0 10251248
11:00+7nw353854 0.0 10241954
14:00+10nnw3535100 0.0 10212315
17:00+9ssw324998 0.0 10211047
20:00+4sse1178100 0.3 102114